カタログに戻る

CZ-6A DEB

運用中PO
NORAD 61158·DEBRIS·🇨🇳 China

打ち上げ Aug 6, 2024 から Taiyuan Satellite Launch Center

Loading…

次のパス (今後24時間)

TLE

最新Source: Space-Track

元期: Sep 14, 2026, 08:29 UTC

1 61158U 24140RC  26257.35360297  .00001648  00000-0  64123-3 0  9997
2 61158  88.5068 218.7751 0083983 167.6718 192.6558 14.27429580107327

AllMySatでCZ-6A DEBをリアルタイム追跡

Download on the App Store